Back to catalog

DMSP 5D-2 F13 DEB

AliveSSO
NORAD 42319·DEBRIS·🇺🇸 United States

Launched Mar 24, 1995 from Vandenberg Space Force Base

Loading…

Next Passes (next 24 hours)

TLE

FreshSource: Space-Track

Epoch: Sep 13, 2026, 09:04 UTC

1 42319U 95015JM  26256.37778018  .00004147  00000-0  13515-2 0  9994
2 42319  98.8772 306.1105 0024384  65.8392 294.5340 14.39072319590990

Track DMSP 5D-2 F13 DEB in real time with AllMySat

Download on the App Store